DG5MNJ Weather Reports


Display with metric or nautical units.
time (UTC)temp
F
wind
direction
speed
MPH
gust
MPH
rain 1hr
in
rain 24hr
in
rain mn
in
humidity
%
barometer
mb
20260507060502 50 235 3.0 4.0 0.00 0.23 0.00 87 1010.6
20260507060002 50 232 7.0 7.0 0.00 0.23 0.00 88 1010.7
20260507055502 49 262 7.0 8.0 0.00 0.23 0.00 88 1010.4
20260507055004 49 278 4.0 6.0 0.00 0.23 0.00 88 1010.1
20260507054522 49 248 3.0 4.0 0.00 0.23 0.00 89 1009.9
20260507054002 49 238 6.0 6.0 0.00 0.23 0.00 89 1010.1
20260507053502 48 258 5.0 7.0 0.00 0.23 0.00 90 1009.9
20260507053002 48 232 3.0 4.0 0.00 0.23 0.00 91 1010.0
20260507052502 48 248 4.0 5.0 0.00 0.23 0.00 91 1010.0
20260507052003 48 218 4.0 4.0 0.00 0.23 0.00 91 1009.9
20260507051502 48 192 4.0 5.0 0.00 0.23 0.00 91 1009.8
20260507051002 48 238 2.0 3.0 0.00 0.23 0.00 92 1009.7
20260507050502 48 198 3.0 3.0 0.00 0.23 0.00 92 1009.9
20260507050002 47 205 3.0 3.0 0.00 0.23 0.00 93 1009.7
20260507045522 47 228 1.0 2.0 0.00 0.23 0.00 93 1009.7
20260507045002 47 228 2.0 3.0 0.00 0.23 0.00 93 1009.6
20260507044502 47 185 3.0 5.0 0.00 0.23 0.00 93 1009.4
20260507044002 47 145 2.0 3.0 0.00 0.23 0.00 93 1009.5
20260507043501 47 202 2.0 2.0 0.00 0.23 0.00 92 1009.2
20260507043002 47 212 2.0 2.0 0.00 0.23 0.00 92 1009.2
20260507042502 47 190 2.0 3.0 0.00 0.23 0.00 92 1009.2
20260507042001 47 185 3.0 4.0 0.00 0.23 0.00 92 1009.3
20260507041502 47 195 2.0 3.0 0.00 0.23 0.00 92 1009.2
20260507041022 47 235 1.0 1.0 0.00 0.23 0.00 92 1009.0
20260507040522 47 228 1.0 1.0 0.00 0.23 0.00 92 1009.0
20260507040003 47 180 2.0 2.0 0.00 0.23 0.00 93 1009.1
20260507035501 47 228 2.0 2.0 0.00 0.23 0.00 92 1009.2
20260507035002 47 220 1.0 2.0 0.00 0.23 0.00 92 1009.1
20260507034502 47 205 3.0 3.0 0.00 0.23 0.00 92 1009.0
20260507034001 47 205 2.0 3.0 0.00 0.23 0.00 92 1009.1
20260507033501 47 208 2.0 2.0 0.00 0.23 0.00 92 1009.1
20260507033001 47 218 2.0 3.0 0.00 0.23 0.00 92 1009.1
20260507032501 47 235 3.0 3.0 0.00 0.23 0.00 92 1009.2
20260507032001 47 230 2.0 3.0 0.00 0.23 0.00 91 1009.1
20260507031501 47 240 2.0 2.0 0.00 0.23 0.00 91 1009.2
20260507031001 47 232 3.0 4.0 0.00 0.23 0.00 91 1009.2
20260507030521 47 218 3.0 5.0 0.00 0.23 0.00 91 1009.2
20260507030001 47 235 4.0 5.0 0.00 0.23 0.00 90 1009.1
20260507025502 47 210 4.0 4.0 0.00 0.23 0.00 90 1009.1
20260507025001 47 245 2.0 2.0 0.00 0.23 0.00 90 1009.0
20260507024521 47 250 3.0 4.0 0.00 0.23 0.00 90 1009.0
20260507024001 47 272 2.0 3.0 0.00 0.23 0.00 90 1009.1
20260507023501 47 262 2.0 3.0 0.00 0.23 0.00 90 1008.9
20260507023001 47 255 4.0 5.0 0.00 0.23 0.00 90 1008.9
20260507022521 48 248 2.0 3.0 0.00 0.23 0.00 90 1008.8
20260507022002 48 232 2.0 3.0 0.00 0.23 0.00 89 1008.9
20260507021501 48 260 4.0 4.0 0.00 0.23 0.00 90 1008.9
20260507021001 48 250 4.0 4.0 0.00 0.23 0.00 90 1008.9
20260507020501 48 300 3.0 4.0 0.00 0.23 0.00 89 1008.9
20260507020022 48 292 3.0 4.0 0.00 0.23 0.00 90 1008.5
20260507015502 48 250 6.0 6.0 0.00 0.23 0.00 89 1008.8
20260507015021 48 265 2.0 4.0 0.00 0.23 0.00 89 1008.6
20260507014501 48 232 4.0 5.0 0.00 0.23 0.00 89 1008.4
20260507014001 48 278 3.0 5.0 0.00 0.23 0.00 89 1008.4
20260507013501 48 250 4.0 4.0 0.00 0.23 0.00 89 1008.4
20260507013001 48 288 3.0 6.0 0.00 0.23 0.00 90 1008.4
20260507012501 48 270 6.0 6.0 0.00 0.23 0.00 90 1008.4
20260507012001 48 238 3.0 5.0 0.00 0.23 0.00 90 1008.5
20260507010501 48 235 3.0 5.0 0.00 0.23 0.00 90 1008.6
20260507010001 48 238 3.0 4.0 0.00 0.23 0.00 90 1008.4
20260507005501 48 262 3.0 3.0 0.00 0.23 0.00 90 1008.5
20260507005001 48 242 2.0 4.0 0.00 0.23 0.00 89 1008.6
20260507004521 48 238 4.0 5.0 0.00 0.23 0.00 89 1008.4
20260507004001 48 242 7.0 7.0 0.00 0.23 0.00 89 1008.3
20260507003501 48 280 5.0 6.0 0.00 0.23 0.00 90 1008.5
20260507003001 48 230 4.0 6.0 0.00 0.23 0.00 90 1008.5
20260507002501 49 258 5.0 5.0 0.00 0.23 0.00 89 1008.3
20260507002002 49 220 4.0 5.0 0.00 0.23 0.00 89 1008.4
20260507001522 49 268 4.0 5.0 0.00 0.23 0.00 90 1008.4
20260507001002 49 232 6.0 8.0 0.00 0.23 0.00 90 1008.5
20260507000502 49 212 8.0 8.0 0.00 0.23 0.00 90 1008.5
20260507000003 49 238 4.0 6.0 0.00 0.23 0.00 90 1008.6
20260506235503 49 250 3.0 8.0 0.00 0.23 0.00 90 1008.5
20260506235002 49 235 6.0 7.0 0.00 0.23 0.00 91 1008.5
20260506234523 49 215 4.0 6.0 0.00 0.23 0.00 91 1008.5
20260506234022 49 230 9.0 9.0 0.00 0.23 0.00 91 1008.5
20260506233502 49 232 4.0 4.0 0.00 0.23 0.00 91 1008.5
20260506233002 49 222 5.0 6.0 0.00 0.23 0.00 91 1008.5
20260506232522 49 245 3.0 3.0 0.00 0.23 0.00 91 1008.3
20260506232002 49 260 4.0 5.0 0.00 0.23 0.00 90 1008.4
20260506231502 49 265 3.0 5.0 0.00 0.23 0.00 90 1008.4
20260506231002 49 218 5.0 5.0 0.00 0.23 0.00 90 1008.5
20260506230502 49 240 5.0 7.0 0.00 0.23 0.00 89 1008.4
20260506230023 49 235 5.0 5.0 0.00 0.23 0.00 89 1008.4
20260506225502 49 242 3.0 4.0 0.00 0.23 0.00 89 1008.3
20260506225002 49 238 6.0 11.0 0.00 0.23 0.00 89 1008.5
20260506224504 49 250 5.0 9.0 0.00 0.23 0.00 90 1008.4
20260506224002 49 248 4.0 11.0 0.00 0.23 0.00 90 1008.4
20260506223502 49 238 8.0 10.0 0.00 0.23 0.00 91 1008.4
20260506223002 49 238 3.0 4.0 0.00 0.23 0.00 91 1008.3
20260506222502 49 275 3.0 4.0 0.00 0.23 0.00 91 1008.3
20260506222002 49 252 5.0 5.0 0.00 0.23 0.00 91 1008.3
20260506221522 49 235 4.0 6.0 0.00 0.23 0.00 91 1008.3
20260506221002 49 252 4.0 5.0 0.00 0.23 0.00 92 1008.3
20260506220522 49 238 7.0 7.0 0.00 0.23 0.00 93 1008.2
20260506220002 49 215 4.0 6.0 0.00 0.23 0.00 93 1008.4
20260506215502 49 265 5.0 5.0 0.00 0.23 0.00 93 1008.2
20260506215002 49 252 2.0 4.0 0.00 0.23 0.23 93 1008.3
20260506214522 49 255 3.0 4.0 0.00 0.24 0.23 93 1008.1
20260506214002 49 232 3.0 3.0 0.00 0.25 0.23 93 1008.0
20260506213502 49 230 2.0 3.0 0.01 0.26 0.23 94 1008.0
20260506213002 49 235 3.0 3.0 0.01 0.27 0.23 93 1008.1
20260506212502 49 242 5.0 6.0 0.01 0.28 0.23 93 1008.1
20260506212022 49 205 3.0 4.0 0.01 0.28 0.23 93 1008.2
20260506211502 49 190 4.0 6.0 0.01 0.28 0.23 93 1008.1
20260506211002 49 182 4.0 6.0 0.01 0.29 0.23 93 1007.9
20260506210502 49 225 5.0 5.0 0.01 0.29 0.23 93 1008.0
20260506210001 49 188 3.0 5.0 0.01 0.33 0.23 92 1007.9
20260506205521 49 210 3.0 6.0 0.01 0.35 0.23 92 1007.9
20260506205021 49 205 3.0 7.0 0.01 0.36 0.23 92 1007.6
20260506204502 49 250 3.0 3.0 0.01 0.36 0.23 92 1007.6
20260506204002 49 208 3.0 4.0 0.01 0.37 0.23 92 1007.6
20260506203503 49 238 3.0 3.0 0.01 0.36 0.23 91 1007.5
20260506203001 49 235 3.0 6.0 0.01 0.36 0.23 91 1007.5
20260506202502 49 262 4.0 4.0 0.01 0.36 0.22 90 1007.5
20260506202002 50 250 3.0 6.0 0.01 0.36 0.22 90 1007.3
20260506201502 49 270 7.0 7.0 0.01 0.36 0.22 90 1007.3
20260506201001 49 275 4.0 6.0 0.01 0.36 0.22 89 1007.3
20260506200501 49 258 5.0 6.0 0.01 0.36 0.22 90 1007.3
20260506200001 49 230 4.0 6.0 0.01 0.36 0.22 90 1007.2
20260506195502 49 248 4.0 4.0 0.01 0.36 0.22 90 1007.0
20260506195001 49 242 6.0 6.0 0.01 0.36 0.22 90 1007.2
20260506194501 49 278 11.0 11.0 0.01 0.36 0.22 90 1007.0
20260506194001 49 242 4.0 8.0 0.01 0.35 0.22 90 1006.9
20260506193522 49 252 8.0 10.0 0.01 0.35 0.22 90 1007.0
20260506193001 49 255 10.0 11.0 0.01 0.35 0.22 91 1007.0
20260506192501 49 282 3.0 6.0 0.01 0.35 0.22 91 1006.8
20260506192021 50 265 7.0 11.0 0.00 0.35 0.21 90 1006.8
20260506191522 50 232 10.0 12.0 0.00 0.34 0.21 90 1006.8
20260506191022 50 270 8.0 12.0 0.00 0.34 0.21 90 1006.9
20260506190502 50 232 6.0 11.0 0.00 0.34 0.21 90 1007.0
20260506190001 50 258 7.0 8.0 0.00 0.34 0.21 89 1006.8
20260506185502 50 272 6.0 8.0 0.00 0.34 0.21 89 1006.9
20260506185001 50 252 6.0 9.0 0.00 0.34 0.21 89 1006.6
20260506184501 50 222 5.0 7.0 0.00 0.34 0.21 89 1006.4
20260506184001 51 265 6.0 8.0 0.00 0.34 0.21 89 1006.3
20260506183521 51 265 5.0 6.0 0.01 0.34 0.21 88 1006.2
20260506183002 51 282 7.0 14.0 0.01 0.34 0.21 87 1006.1
20260506182521 51 258 13.0 17.0 0.01 0.34 0.21 88 1006.1
20260506182001 51 265 12.0 17.0 0.01 0.34 0.21 88 1006.0
20260506181501 51 280 5.0 12.0 0.01 0.34 0.21 89 1005.8
20260506181001 51 270 4.0 5.0 0.02 0.34 0.21 90 1005.8
20260506180501 51 242 7.0 8.0 0.02 0.34 0.21 90 1005.8
20260506180021 51 320 5.0 17.0 0.02 0.34 0.21 89 1005.7
20260506175502 51 260 6.0 12.0 0.02 0.34 0.21 89 1005.7
20260506175001 51 250 8.0 14.0 0.02 0.34 0.21 89 1005.6
20260506174501 51 275 13.0 14.0 0.02 0.34 0.21 90 1005.3
20260506174001 51 250 11.0 20.0 0.02 0.34 0.21 89 1005.3
20260506173521 52 238 10.0 16.0 0.01 0.33 0.20 88 1005.1
20260506173001 53 208 6.0 15.0 0.01 0.33 0.20 91 1005.3
20260506172501 53 178 7.0 8.0 0.01 0.33 0.20 94 1005.1
20260506172002 53 245 10.0 10.0 0.01 0.33 0.20 95 1004.9
20260506171521 53 230 6.0 10.0 0.01 0.33 0.20 94 1004.5
20260506171001 53 208 6.0 11.0 0.01 0.33 0.20 95 1004.2
20260506170502 53 222 6.0 6.0 0.00 0.33 0.19 95 1004.2
20260506170002 53 248 5.0 10.0 0.00 0.32 0.19 94 1003.9
20260506165501 53 242 4.0 6.0 0.00 0.32 0.19 94 1003.9
20260506165021 53 235 5.0 6.0 0.00 0.32 0.19 93 1003.7
20260506164522 53 225 3.0 4.0 0.00 0.32 0.19 93 1003.4
20260506164001 53 228 2.0 4.0 0.00 0.32 0.19 93 1003.5
20260506163501 53 272 3.0 5.0 0.01 0.32 0.19 93 1003.4
20260506163002 53 248 4.0 4.0 0.01 0.32 0.19 93 1003.4
20260506162501 53 248 4.0 4.0 0.03 0.32 0.19 93 1003.3
20260506162001 53 228 4.0 4.0 0.09 0.32 0.19 92 1003.4
20260506161502 54 208 5.0 6.0 0.13 0.32 0.19 91 1003.6
20260506161022 54 272 2.0 3.0 0.15 0.32 0.19 90 1003.2
20260506160502 54 352 4.0 6.0 0.17 0.32 0.19 89 1003.1
20260506160002 53 358 4.0 5.0 0.18 0.32 0.19 90 1003.1
20260506155502 53 308 6.0 8.0 0.18 0.32 0.19 90 1003.3
20260506155002 53 322 7.0 9.0 0.18 0.32 0.19 91 1003.1
20260506154502 53 348 4.0 6.0 0.18 0.32 0.19 92 1003.2
20260506154002 53 28 8.0 13.0 0.18 0.32 0.19 92 1003.3
20260506153503 53 342 9.0 14.0 0.18 0.32 0.19 92 1003.3
20260506153002 53 272 7.0 8.0 0.18 0.32 0.18 93 1003.6
20260506152522 53 295 6.0 7.0 0.17 0.31 0.18 93 1003.9
20260506152003 53 298 10.0 13.0 0.16 0.30 0.16 93 1003.8
20260506151502 53 262 11.0 16.0 0.10 0.24 0.10 92 1004.2
20260506151002 54 260 7.0 14.0 0.05 0.20 0.06 92 1004.2
20260506150502 55 315 8.0 16.0 0.03 0.18 0.04 88 1004.3
20260506150004 58 248 11.0 26.0 0.01 0.18 0.02 80 1003.7
20260506145502 61 248 9.0 17.0 0.01 0.18 0.01 74 1002.9
20260506145002 62 310 5.0 11.0 0.00 0.17 0.01 70 1001.9
20260506144502 63 360 11.0 14.0 0.00 0.19 0.01 65 1001.4
20260506144002 63 312 5.0 7.0 0.00 0.21 0.01 62 1001.3
20260506143502 64 305 6.0 8.0 0.00 0.22 0.01 62 1001.3
20260506143002 64 360 5.0 6.0 0.00 0.23 0.01 63 1001.2
20260506142502 64 345 5.0 5.0 0.00 0.24 0.01 62 1001.0
20260506142002 65 358 6.0 8.0 0.00 0.26 0.01 60 1001.1
20260506141502 66 315 5.0 5.0 0.00 0.27 0.01 59 1001.2
20260506141002 66 315 6.0 8.0 0.00 0.27 0.01 58 1001.4
20260506140502 67 360 6.0 6.0 0.00 0.27 0.01 58 1001.4
20260506140002 67 358 10.0 13.0 0.00 0.27 0.01 58 1001.4
20260506135502 67 360 4.0 6.0 0.00 0.27 0.01 58 1001.4
20260506135002 67 272 7.0 12.0 0.00 0.27 0.01 56 1001.4
20260506134502 67 360 4.0 8.0 0.00 0.27 0.01 57 1001.6
20260506134002 66 328 8.0 11.0 0.00 0.27 0.01 58 1001.5
20260506133502 66 290 4.0 8.0 0.00 0.27 0.01 59 1001.7
20260506133002 66 32 6.0 8.0 0.00 0.27 0.01 59 1001.8
20260506132522 66 62 5.0 6.0 0.00 0.27 0.01 59 1001.7
20260506132021 65 12 4.0 4.0 0.00 0.27 0.01 60 1001.7
20260506131502 66 305 4.0 6.0 0.00 0.27 0.01 60 1001.9
20260506131002 66 320 7.0 8.0 0.00 0.27 0.01 59 1001.9
20260506130503 66 2 8.0 9.0 0.00 0.27 0.01 58 1002.0
20260506130002 66 340 4.0 5.0 0.00 0.27 0.01 56 1002.0
20260506125502 67 298 3.0 4.0 0.00 0.27 0.01 56 1002.1
20260506125002 67 58 6.0 6.0 0.00 0.27 0.01 55 1002.0
20260506124502 67 312 2.0 4.0 0.00 0.27 0.01 54 1002.3
20260506124001 65 82 4.0 7.0 0.00 0.27 0.01 56 1002.2
20260506123501 65 295 3.0 5.0 0.00 0.27 0.01 55 1002.3
20260506123001 65 15 4.0 4.0 0.00 0.27 0.01 56 1002.3
20260506122502 65 350 3.0 11.0 0.00 0.27 0.01 56 1002.5
20260506122021 65 82 5.0 5.0 0.00 0.27 0.01 57 1002.3
20260506121502 65 55 5.0 6.0 0.00 0.27 0.01 58 1002.5
20260506121001 66 2 6.0 6.0 0.00 0.27 0.01 58 1002.6
20260506120501 64 328 2.0 4.0 0.00 0.27 0.01 60 1002.7
20260506120001 64 75 3.0 6.0 0.00 0.27 0.01 59 1002.8
20260506115522 64 8 4.0 8.0 0.00 0.27 0.01 58 1002.9
20260506115002 64 78 6.0 8.0 0.00 0.27 0.01 59 1002.9
20260506114502 63 80 6.0 7.0 0.00 0.27 0.01 59 1003.0
20260506114021 63 122 6.0 9.0 0.00 0.27 0.01 59 1003.1
20260506113502 63 118 5.0 8.0 0.00 0.27 0.01 59 1003.3
20260506113002 63 60 6.0 8.0 0.00 0.27 0.01 59 1003.1
20260506112501 63 22 5.0 6.0 0.00 0.27 0.01 59 1003.2
20260506112001 63 20 4.0 7.0 0.00 0.27 0.01 58 1003.3
20260506111502 64 28 3.0 4.0 0.00 0.27 0.01 59 1003.3
20260506111021 64 268 3.0 3.0 0.00 0.27 0.01 59 1003.4
20260506110502 63 328 2.0 2.0 0.00 0.27 0.01 61 1003.4
20260506110001 63 350 4.0 10.0 0.00 0.27 0.01 60 1003.3
20260506105501 63 72 7.0 10.0 0.00 0.27 0.01 59 1003.4
20260506105001 63 298 2.0 5.0 0.00 0.27 0.01 60 1003.7
20260506104521 63 88 6.0 7.0 0.00 0.27 0.01 58 1003.7
20260506104002 63 38 7.0 7.0 0.00 0.27 0.01 58 1003.7
20260506103501 63 20 6.0 6.0 0.00 0.27 0.01 59 1003.8
20260506103022 63 85 6.0 6.0 0.00 0.27 0.01 59 1003.9
20260506102501 63 12 4.0 7.0 0.00 0.27 0.01 58 1004.1
20260506102001 64 68 4.0 6.0 0.00 0.27 0.01 57 1004.1
20260506101501 64 52 4.0 4.0 0.00 0.27 0.01 57 1003.9
20260506101001 64 12 4.0 4.0 0.00 0.27 0.01 61 1004.1
20260506100501 64 48 5.0 5.0 0.00 0.27 0.01 59 1004.3
20260506100001 64 110 2.0 4.0 0.00 0.27 0.01 62 1004.2
20260506095501 64 332 4.0 5.0 0.00 0.27 0.01 63 1004.1
20260506095002 63 238 1.0 3.0 0.00 0.27 0.01 63 1004.2
20260506094501 63 90 3.0 4.0 0.00 0.27 0.01 62 1004.2
20260506094001 63 25 2.0 3.0 0.00 0.27 0.01 63 1004.2
20260506093501 63 338 4.0 4.0 0.00 0.27 0.01 63 1004.3
20260506093001 62 318 2.0 4.0 0.00 0.27 0.01 63 1004.3
20260506092501 63 20 7.0 7.0 0.00 0.27 0.01 62 1004.2
20260506092001 64 322 3.0 4.0 0.00 0.27 0.01 62 1004.2
20260506091503 63 210 1.0 2.0 0.00 0.27 0.01 62 1004.1
20260506091001 62 318 2.0 4.0 0.00 0.27 0.01 63 1004.3
20260506090501 62 290 2.0 3.0 0.00 0.27 0.01 63 1004.2
20260506090001 63 170 2.0 3.0 0.00 0.27 0.01 61 1004.2
20260506085501 62 348 3.0 4.0 0.00 0.27 0.01 64 1004.3
20260506085021 62 345 4.0 5.0 0.00 0.27 0.01 62 1004.4
20260506084501 62 352 3.0 4.0 0.00 0.27 0.01 61 1004.4
20260506084003 61 78 3.0 6.0 0.00 0.27 0.01 63 1004.3
20260506083502 62 40 6.0 7.0 0.00 0.27 0.01 64 1004.3
20260506083002 62 248 2.0 3.0 0.00 0.27 0.01 63 1004.4
20260506082502 62 352 5.0 7.0 0.00 0.27 0.01 63 1004.5
20260506082002 63 172 2.0 4.0 0.00 0.27 0.01 61 1004.6
20260506081522 62 280 3.0 4.0 0.00 0.27 0.01 63 1004.5
20260506081022 63 335 2.0 4.0 0.00 0.27 0.01 60 1004.6
20260506080502 62 358 2.0 3.0 0.00 0.27 0.01 64 1004.6
20260506073502 61 55 4.0 5.0 0.00 0.27 0.01 61 1004.7
20260506073002 62 28 2.0 5.0 0.00 0.27 0.01 62 1004.8
20260506072502 63 72 3.0 4.0 0.00 0.27 0.01 63 1004.6
20260506072002 64 298 2.0 2.0 0.00 0.27 0.01 65 1004.8
20260506071503 62 245 1.0 1.0 0.00 0.27 0.01 67 1005.0
20260506071002 62 252 1.0 1.0 0.00 0.27 0.00 64 1005.0
20260506070502 61 275 1.0 1.0 0.00 0.27 0.00 68 1004.9
20260506062502 57 105 2.0 2.0 0.00 0.27 0.00 84 1005.2
20260506062002 57 360 1.0 1.0 0.00 0.27 0.00 85 1005.2
20260506061502 56 288 1.0 1.0 0.00 0.27 0.00 85 1005.1
20260506061002 56 155 2.0 2.0 0.00 0.27 0.00 86 1005.4